Content
SEND FEEDBACK

Daily
Averages
Monthly
Summary
United States of America

ORANGE LAKE, NEW YORK


Home > North America > United States > New York
Elevation: 581 feet     Latitude: 41 47N     Longitude: 074 58W

WEATHER
 
SELECT A DAY
Number of Records: 152,993;   Date Range: 11/1/95 - 12/18/14
 
SHARE

PRINT THIS DATA

[ ← Previous Day ]
WEATHER ALMANAC - MARCH 14, 2013
[ Next Day → ]
[ °C ]   °F
Weather ElementAverageHighLow
Temperature34.4 °F39.9 °F (4:51 pm)28.9 °F (9:51 am)
Dewpoint9.8 °F24.1 °F (1:51 am)3.9 °F (8:51 pm)
Humidity37 %59 % (1:51 am)24 % (6:51 pm)
Barometer29.90 in29.96 in (9:51 am)29.84 in (4:51 pm)
Wind Speed11.6 mph18.4 mph (12:51 pm)
Wind Gust34.5 mph (7:51 am)
Weather ElementAverage
Visibility10 mi
Wind DirectionWNW (277 °)

Weather ElementTotal
Precipitation---
Heating Degree Days30.6 (Base 65)
Averaged from 23 records on March 14, 2013
WEATHER CONDITIONS BREAKOUT
WIND DIRECTION BREAKOUT
WEATHER BY HOUR - MARCH 14, 2013
[ °C ]   °F
Local TimeTemperatureDewpointHumidityBarometerVisibilityWind DirectionWind SpeedGust SpeedPrecipitationEventsConditions
1:51 AM37.0 °F24.1 °F59 %29.88 in10.0 miNW (320°)10.4 mph20.7 mphOvercast
2:51 AM35.1 °F19.0 °F52 %29.89 in10.0 miWNW (290°)8.1 mph19.6 mphOvercast
3:51 AM35.1 °F17.1 °F48 %29.88 in10.0 miWNW (290°)8.1 mphOvercast
4:51 AM32.0 °F12.0 °F44 %29.89 in10.0 miWNW (290°)13.8 mph24.2 mphScattered Clouds
5:51 AM30.9 °F10.9 °F43 %29.90 in10.0 miNW (310°)6.9 mph21.9 mphPartly Cloudy
6:51 AM30.9 °F10.9 °F43 %29.90 in10.0 miWNW (290°)9.2 mphMostly Cloudy
7:51 AM30.9 °F10.0 °F42 %29.91 in10.0 miWNW (290°)16.1 mph34.5 mphOvercast
8:51 AM30.0 °F9.0 °F41 %29.95 in10.0 miNW (310°)11.5 mph27.6 mphOvercast
9:51 AM28.9 °F6.1 °F38 %29.96 in10.0 miNW (320°)13.8 mph31.1 mphOvercast
10:51 AM30.9 °F9.0 °F40 %29.95 in10.0 miNW (320°)16.1 mph28.8 mphOvercast
11:51 AM30.9 °F10.9 °F43 %29.93 in10.0 miVariable6.9 mph23.0 mphOvercast
12:51 PM33.1 °F10.9 °F40 %29.91 in10.0 miNW (310°)18.4 mph29.9 mphOvercast
1:51 PM35.1 °F10.9 °F37 %29.89 in10.0 miNW (310°)16.1 mph32.2 mphMostly Cloudy
2:51 PM36.0 °F10.9 °F36 %29.87 in10.0 miWNW (300°)13.8 mph31.1 mphClear
3:51 PM39.0 °F10.0 °F30 %29.85 in10.0 miWNW (290°)17.3 mph26.5 mphPartly Cloudy
4:51 PM39.9 °F7.0 °F26 %29.84 in10.0 miWNW (300°)12.7 mph26.5 mphScattered Clouds
5:51 PM39.9 °F6.1 °F25 %29.85 in10.0 miWNW (300°)10.4 mph28.8 mphClear
6:51 PM39.0 °F5.0 °F24 %29.87 in10.0 miVariable6.9 mph23.0 mphClear
7:51 PM37.9 °F5.0 °F25 %29.89 in10.0 miNW (310°)9.2 mph23.0 mphClear
8:51 PM36.0 °F3.9 °F26 %29.91 in10.0 miWNW (300°)12.7 mph29.9 mphClear
9:51 PM35.1 °F3.9 °F27 %29.92 in10.0 miWNW (300°)9.2 mph24.2 mphClear
10:51 PM34.0 °F5.0 °F30 %29.94 in10.0 miNW (320°)8.1 mph20.7 mphClear
11:51 PM34.0 °F7.0 °F32 %29.95 in10.0 miWNW (300°)11.5 mph23.0 mphClear
Hourly data recorded from KNYC, located miles away from Orange Lake, New York







STORIES FROM OUR PARTNERS